[[{"header":{"parameterUnit":"m.s-1","parameterCategory":1,"la1":30.2991,"la2":30.254,"lo1":-89.0895,"lo2":-89.0444,"dy":0.0017,"dx":0.0017,"nx":28,"ny":28,"refTime":"2025-04-21T03:00:00:Z","depth":0,"parameterNumber":2,"parameterNumberName":"U-component_of_WINDS"},"data":[0,0,0,0,0,0,0,0,0,0,0,0,0,0,0,0,0,0,0,0,0,0,0,0,0,0,0,0,0,0,0,0,0,0,0,0,0,0,0,0,0,0,0,0,0,0,0,0,0,0,0,0,0,0,0,0,0,0,-2.9215,-2.9214,0,-2.9188,-2.9188,-2.9188,-2.9115,-2.9114,-2.9112,-2.9111,-2.9086,-2.9087,-2.9087,0,0,0,0,0,0,0,0,0,0,0,0,0,-2.9206,-2.9206,-2.9215,-2.9214,-2.9214,-2.9188,-2.9188,-2.9187,-2.9116,-2.9114,-2.9112,-2.911,-2.9086,-2.9087,-2.9087,0,0,0,0,0,0,0,0,0,0,0,0,0,-2.9198,-2.9207,-2.9215,-2.9175,-2.9171,-2.9188,-2.9188,-2.9187,-2.9116,-2.9114,-2.9111,-2.9109,-2.9085,-2.9086,-2.9088,-2.9142,0,0,-2.9091,-2.9092,0,0,0,0,0,0,0,0,-2.9198,-2.9198,-2.9181,-2.9178,-2.9173,-2.9153,-2.9176,-2.9172,-2.9117,-2.9137,-2.9111,-2.9108,-2.911,-2.9109,-2.9109,-2.9141,-2.914,-2.9091,-2.9092,-2.9093,-2.9093,0,0,0,0,0,0,0,-2.9199,-2.9199,-2.9204,-2.9181,-2.9176,-2.9159,-2.9156,-2.9175,-2.9137,-2.9135,-2.913,-2.9127,-2.9108,-2.9108,-2.9108,-2.9139,-2.9091,-2.9092,-2.9093,-2.9094,-2.9214,-2.9216,0,0,0,0,0,0,-2.9205,-2.92,-2.9205,-2.9203,-2.918,-2.9162,-2.9157,-2.9162,-2.9137,-2.9131,-2.9129,-2.9124,-2.9107,-2.9107,-2.9107,-2.9168,-2.9093,-2.9094,-2.9094,-2.9211,-2.9214,-2.9217,0,0,0,0,0,0,-2.9205,-2.9206,-2.9206,-2.92,-2.9199,-2.9164,-2.917,-2.9162,-2.9163,-2.9132,-2.9126,-2.9137,-2.9106,-2.9105,-2.9133,-2.9166,-2.9094,-2.9095,-2.9208,-2.9212,-2.9216,-2.929,0,0,0,0,0,0,-2.9205,-2.9206,-2.9226,-2.9201,-2.9199,-2.9232,-2.9172,-2.9164,-2.9165,-2.9158,-2.9138,-2.9132,-2.9104,-2.9132,-2.9135,-2.9166,-2.9096,-2.9205,-2.921,-2.9215,-2.9285,-2.9296,-2.9306,0,0,0,0,0,-2.9205,-2.9248,-2.9227,-2.9228,-2.9223,-2.9234,-2.9233,-2.9199,-2.9168,-2.9187,-2.9168,-2.9133,-2.9163,-2.9136,-2.9138,-2.917,-2.9203,-2.9209,-2.9214,-2.928,-2.9294,-2.9305,0,0,0,0,0,0,-2.9278,-2.9244,-2.922,-2.9257,-2.9249,-2.9222,-2.9245,-2.9215,-2.9216,-2.9209,-2.9168,-2.9164,-2.9198,-2.9188,-2.9158,-2.9222,-2.9177,-2.9184,-2.9226,-2.9239,-2.925,-2.925,-2.9097,0,0,0,0,0,-2.9298,-2.9309,-2.928,-2.9315,-2.9312,-2.928,-2.9284,-2.9258,-2.9248,-2.9245,-2.9227,-2.922,-2.9228,-2.9234,-2.9239,-2.9284,-2.9278,-2.9308,-2.9318,-2.9327,-2.9332,-2.9354,-2.9367,-2.9235,-2.9235,-2.9235,0,0,-2.934,-2.9323,-2.9333,-2.9329,-2.932,-2.9333,-2.9277,-2.9293,-2.9303,-2.9247,-2.9272,-2.926,-2.9249,-2.9286,-2.9301,-2.9278,-2.9368,-2.9334,-2.9342,-2.9341,-2.9361,-2.9374,-2.9385,-2.9239,-2.9239,-2.9238,0,0,-2.9422,-2.9411,-2.9439,-2.9431,-2.9418,-2.9396,-2.9403,-2.9381,-2.937,-2.9395,-2.9353,-2.9365,-2.938,-2.9373,-2.9372,-2.9455,-2.9422,-2.9458,-2.9512,-2.9534,-2.9545,-2.9554,-2.9581,-2.9592,-2.9464,-2.9464,-2.9464,0,-2.9476,-2.9493,-2.9457,-2.9475,-2.9475,-2.9426,-2.9454,-2.9449,-2.9439,-2.944,-2.9415,-2.9432,-2.9421,-2.9455,-2.9475,-2.9477,-2.9483,-2.9458,-2.9546,-2.9555,-2.9562,-2.9588,-2.9599,-2.9469,-2.9468,-2.9468,-2.9467,0,-2.9559,-2.9571,-2.9596,-2.9586,-2.9589,-2.9612,-2.9581,-2.9589,-2.9564,-2.9546,-2.9572,-2.9558,-2.9559,-2.9567,-2.9543,-2.9598,-2.9583,-2.9553,-2.9507,-2.958,-2.9603,-2.9613,-2.9475,-2.9473,-2.9472,-2.9471,0,0,-2.9682,-2.9654,-2.9663,-2.9658,-2.9641,-2.9651,-2.9673,-2.9674,-2.9681,-2.9677,-2.9694,-2.9708,-2.968,-2.9679,-2.9655,-2.9675,-2.974,-2.9642,-2.9641,-2.9658,-2.9797,-2.9818,-2.983,-2.972,-2.9721,-2.9723,-2.9798,0,-2.9758,-2.9791,-2.9761,-2.9801,-2.9812,-2.9768,-2.9787,-2.978,-2.9764,-2.9772,-2.9756,-2.9765,-2.9728,-2.9727,-2.9746,-2.9728,-2.9767,-2.9723,-2.9734,-2.9735,-2.9734,-2.9843,-2.9864,-2.9935,-2.9807,-2.9808,-2.981,0,-2.9849,-2.9848,-2.9889,-2.987,-2.9874,-2.9891,-2.989,-2.9899,-2.989,-2.9877,-2.9877,-2.9848,-2.9869,-2.9827,-2.9856,-2.9826,-2.983,-2.9823,-2.9825,-2.9821,-2.9774,-2.984,-2.9957,-2.9967,-2.9824,-2.9823,-2.9822,0,-2.9932,-2.9942,-2.9967,-2.9965,-2.9944,-2.9957,-2.9949,-2.9938,-2.9941,-2.9941,-2.9942,-2.9946,-2.9947,-2.995,-2.9923,-2.9895,-2.9955,-2.9911,-2.9944,-2.9945,-2.9955,-2.9955,-3.0072,-2.9964,-2.9964,-2.9963,-2.9963,0,-3.0017,-3.0043,-3.0004,-3.0019,-3.0048,-3.0014,-3.0044,-3.0032,-3.0023,-3.0036,-2.9999,-3.0012,-2.9977,-2.9987,-2.9967,-2.9993,-2.9994,-2.9984,-2.9978,-2.9986,-2.9987,-2.9985,-2.9978,-2.9966,-2.9966,-2.9965,-2.9965,0,-3.0113,-3.0087,-3.0112,-3.0091,-3.0086,-3.0108,-3.009,-3.0104,-3.0088,-3.0104,-3.0106,-3.008,-3.009,-3.0064,-3.0071,-3.0057,-3.0094,-3.0081,-3.0096,-3.0091,-3.0125,-3.0121,-3.0242,-3.0256,-3.0142,-3.0143,-3.0144,0,-3.0167,-3.0186,-3.0167,-3.0173,-3.0167,-3.0177,-3.0179,-3.0148,-3.0153,-3.0145,-3.016,-3.0167,-3.017,-3.0188,-3.017,-3.0175,-3.016,-3.0203,-3.0161,-3.0168,-3.0158,-3.0156,-3.0157,-3.021,-3.0212,-3.0213,-3.0214,0,-3.0265,-3.0252,-3.0257,-3.0258,-3.0262,-3.0262,-3.0259,-3.0266,-3.0233,-3.0241,-3.025,-3.0252,-3.0259,-3.0266,-3.0267,-3.026,-3.0231,-3.0228,-3.0235,-3.0242,-3.0248,-3.0243,-3.0116,-3.0224,-3.0223,-3.0223,-3.0222,-3.0222,-3.034,-3.0354,-3.0343,-3.035,-3.0345,-3.0344,-3.0355,-3.034,-3.0347,-3.0349,-3.0332,-3.0345,-3.0337,-3.0335,-3.0332,-3.0342,-3.0322,-3.0334,-3.0336,-3.0339,-3.0343,-3.025,-3.0342,-3.0342,-3.0342,-3.0341,-3.0341,0,-3.0434,-3.0425,-3.0432,-3.0429,-3.0435,-3.0409,-3.0404,-3.0411,-3.0422,-3.0418,-3.0422,-3.0433,-3.044,-3.0424,-3.0428,-3.044,-3.0427,-3.0442,-3.0439,-3.0438,-3.0361,-3.0353,-3.0452,-3.0452,-3.0452,-3.0452,-3.0452,-3.0452,-3.0483,-3.0506,-3.0492,-3.0513,-3.0504,-3.0516,-3.0516,-3.0514,-3.051,-3.0524,-3.0529,-3.0519,-3.0509,-3.0513,-3.0519,-3.0514,-3.0516,-3.0535,-3.0526,-3.0454,-3.0443,-3.0433,-3.0424,-3.0537,-3.0537,-3.0601,-3.0601,-3.0602]},{"header":{"parameterUnit":"m.s-1","parameterCategory":1,"la1":30.2991,"la2":30.254,"lo1":-89.0895,"lo2":-89.0444,"dy":0.0017,"dx":0.0017,"nx":28,"ny":28,"refTime":"2025-04-21T03:00:00:Z","depth":0,"parameterNumber":3,"parameterNumberName":"V-component_of_WINDS"},"data":[0,0,0,0,0,0,0,0,0,0,0,0,0,0,0,0,0,0,0,0,0,0,0,0,0,0,0,0,0,0,0,0,0,0,0,0,0,0,0,0,0,0,0,0,0,0,0,0,0,0,0,0,0,0,0,0,0,0,2.3606,2.3606,0,2.3598,2.3598,2.3598,2.3662,2.3664,2.3666,2.3668,2.3654,2.3652,2.365,0,0,0,0,0,0,0,0,0,0,0,0,0,2.3675,2.3674,2.3606,2.3606,2.3606,2.3598,2.3598,2.3598,2.3662,2.3664,2.3666,2.3668,2.3655,2.3652,2.365,0,0,0,0,0,0,0,0,0,0,0,0,0,2.3654,2.3673,2.3606,2.3637,2.364,2.3598,2.3598,2.3598,2.3661,2.3664,2.3667,2.3669,2.3656,2.3653,2.365,2.3576,0,0,2.364,2.3639,0,0,0,0,0,0,0,0,2.3655,2.3651,2.3633,2.3635,2.3638,2.3634,2.3617,2.359,2.3661,2.3653,2.3668,2.3671,2.3645,2.3643,2.3635,2.3575,2.3575,2.364,2.3638,2.3637,2.3636,0,0,0,0,0,0,0,2.3656,2.3652,2.3603,2.3633,2.3636,2.3651,2.3651,2.3612,2.3634,2.3654,2.3659,2.3657,2.3647,2.3638,2.3635,2.3575,2.364,2.3637,2.3635,2.3634,2.3456,2.3453,0,0,0,0,0,0,2.3654,2.3653,2.3603,2.3603,2.3654,2.3647,2.3647,2.3632,2.3634,2.3637,2.3655,2.366,2.3642,2.3639,2.3635,2.355,2.3637,2.3634,2.3632,2.3459,2.3455,2.3452,0,0,0,0,0,0,2.3655,2.3649,2.3604,2.3629,2.3624,2.3643,2.3626,2.3631,2.3622,2.3635,2.3639,2.3642,2.3644,2.3639,2.3591,2.355,2.3632,2.363,2.3462,2.3458,2.3454,2.3379,0,0,0,0,0,0,2.3657,2.3649,2.3622,2.3628,2.3623,2.356,2.3624,2.3629,2.3617,2.3624,2.3624,2.3626,2.3646,2.3595,2.3588,2.3548,2.3627,2.3466,2.346,2.3455,2.3385,2.3372,2.3361,0,0,0,0,0,2.3659,2.36,2.362,2.3614,2.3589,2.3558,2.3554,2.3579,2.3614,2.3586,2.3595,2.3626,2.3556,2.359,2.3582,2.354,2.3468,2.3462,2.3455,2.339,2.3375,2.3362,0,0,0,0,0,0,2.3586,2.3601,2.3624,2.3565,2.356,2.3569,2.3534,2.3562,2.3546,2.3553,2.3583,2.3582,2.3529,2.353,2.3567,2.347,2.3518,2.351,2.3471,2.3457,2.3445,2.3446,2.3625,0,0,0,0,0,2.3563,2.3538,2.3552,2.3498,2.3495,2.3515,2.3502,2.3522,2.3517,2.3515,2.352,2.3513,2.349,2.3473,2.3452,2.3386,2.3387,2.3353,2.3342,2.3332,2.3324,2.329,2.3276,2.3431,2.3431,2.3431,0,0,2.3515,2.352,2.3502,2.3483,2.3482,2.3454,2.3512,2.348,2.3459,2.3509,2.3464,2.3468,2.3462,2.3405,2.338,2.3404,2.3282,2.3324,2.3316,2.3313,2.3282,2.3267,2.3254,2.3426,2.3427,2.3428,0,0,2.3414,2.3415,2.3371,2.3369,2.3367,2.3381,2.3371,2.3376,2.3381,2.3337,2.3375,2.335,2.3309,2.3304,2.3296,2.3196,2.3224,2.3188,2.3127,2.3093,2.3081,2.307,2.3035,2.3021,2.318,2.318,2.318,0,2.3353,2.3314,2.3344,2.331,2.3301,2.3348,2.3304,2.33,2.329,2.3282,2.331,2.3261,2.3261,2.3203,2.3179,2.3171,2.316,2.3187,2.308,2.307,2.306,2.3027,2.3013,2.3175,2.3176,2.3176,2.3177,0,2.3241,2.3213,2.3178,2.317,2.3157,2.3117,2.3141,2.3124,2.3146,2.3157,2.3112,2.3114,2.3095,2.3083,2.3102,2.3028,2.3044,2.3076,2.3124,2.3041,2.301,2.2997,2.3169,2.3171,2.3172,2.3173,0,0,2.309,2.3102,2.3089,2.3086,2.3089,2.3067,2.303,2.3014,2.2999,2.2991,2.2961,2.2926,2.2957,2.2948,2.2968,2.2938,2.2859,2.2974,2.2974,2.2953,2.2778,2.2754,2.2739,2.2879,2.2877,2.2875,2.2779,0,2.2992,2.2931,2.2958,2.2894,2.2869,2.2914,2.2882,2.288,2.289,2.2869,2.288,2.2855,2.2897,2.2892,2.2865,2.2874,2.2825,2.2882,2.285,2.2849,2.285,2.2723,2.2697,2.2606,2.2767,2.2765,2.2764,0,2.2868,2.2858,2.2791,2.2801,2.2791,2.2762,2.275,2.273,2.2728,2.2738,2.2729,2.2756,2.272,2.277,2.2721,2.2759,2.2748,2.2751,2.2748,2.2746,2.2801,2.2717,2.2578,2.2564,2.2745,2.2746,2.2748,0,2.2765,2.2735,2.2692,2.2689,2.2698,2.2676,2.2679,2.268,2.2669,2.2658,2.2652,2.2636,2.2627,2.2614,2.2636,2.267,2.2584,2.2636,2.2591,2.259,2.257,2.2571,2.2427,2.2563,2.2563,2.2563,2.2564,0,2.2652,2.261,2.2647,2.262,2.2574,2.2606,2.256,2.2567,2.2568,2.2544,2.2581,2.2557,2.2588,2.2567,2.2584,2.2541,2.2536,2.2543,2.2548,2.2539,2.2538,2.2532,2.2539,2.256,2.256,2.2561,2.2562,0,2.2529,2.2552,2.2509,2.2522,2.2524,2.249,2.2501,2.2477,2.2491,2.2459,2.2453,2.2474,2.2451,2.2473,2.245,2.2461,2.2405,2.2418,2.2405,2.2409,2.2363,2.2368,2.221,2.2192,2.2339,2.2338,2.2337,0,2.2455,2.2424,2.2435,2.2423,2.2423,2.2402,2.2392,2.2422,2.241,2.2407,2.2383,2.2364,2.235,2.2311,2.2324,2.2307,2.2321,2.2267,2.2318,2.2312,2.232,2.2322,2.2319,2.2256,2.2255,2.2253,2.2252,0,2.2322,2.2335,2.232,2.2309,2.2296,2.2289,2.2284,2.2271,2.2302,2.2286,2.2265,2.2254,2.2233,2.2213,2.2201,2.2203,2.2232,2.2236,2.2225,2.2216,2.221,2.2213,2.2377,2.2239,2.224,2.2241,2.2242,2.2243,2.2221,2.2197,2.2201,2.2183,2.2183,2.2179,2.2157,2.2169,2.2152,2.2139,2.2157,2.2131,2.2131,2.2118,2.2117,2.2096,2.2118,2.2102,2.2098,2.2093,2.2087,2.2214,2.2094,2.2094,2.2094,2.2095,2.2095,0,2.209,2.2096,2.2079,2.2073,2.2059,2.2091,2.2087,2.2073,2.205,2.2049,2.2035,2.2011,2.1992,2.2005,2.1989,2.197,2.1983,2.1965,2.1966,2.1967,2.2067,2.2079,2.1955,2.1955,2.1955,2.1955,2.1955,2.1955,2.202,2.1981,2.1995,2.1956,2.1962,2.1938,2.1933,2.1929,2.1929,2.19,2.1886,2.1895,2.1899,2.1885,2.187,2.1874,2.1866,2.1843,2.1852,2.1945,2.1959,2.1972,2.1983,2.1841,2.1841,2.1753,2.1752,2.1751]}]]